[[{"header":{"parameterUnit":"m.s-1","parameterCategory":2,"la1":30.2991,"la2":30.254,"lo1":-89.0895,"lo2":-89.0444,"dy":0.0017,"dx":0.0017,"nx":28,"ny":28,"refTime":"2023-08-01T09:00:00:Z","depth":"0","parameterNumber":2,"parameterNumberName":"U-component_of_CURRENTS"},"data":[0,0,0,0,0,0,0,0,0,0,0,0,0,0,0,0,0,0,0,0,0,0,0,0,0,0,0,0,0,0,0,0,0,0,0,0,0,0,0,0,0,0,0,0,0,0,0,0,0,0,0,0,0,0,0,0,0,0,0.2067,0.2069,0,0.2165,0.2166,0.2167,0.2176,0.2175,0.2174,0.2174,0.2186,0.2187,0.2188,0,0,0,0,0,0,0,0,0,0,0,0,0,0.1898,0.1901,0.2067,0.2069,0.207,0.2165,0.2166,0.2167,0.2176,0.2175,0.2174,0.2173,0.2186,0.2187,0.2188,0,0,0,0,0,0,0,0,0,0,0,0,0,0.1978,0.1902,0.2067,0.2089,0.2092,0.2165,0.2166,0.2167,0.2176,0.2175,0.2174,0.2173,0.2186,0.2187,0.2189,0.2218,0,0,0.2193,0.2194,0,0,0,0,0,0,0,0,0.1973,0.1983,0.2084,0.2088,0.2091,0.2161,0.2112,0.2182,0.2176,0.214,0.2174,0.2173,0.2173,0.2176,0.2192,0.2219,0.222,0.2193,0.2194,0.2195,0.2195,0,0,0,0,0,0,0,0.1968,0.1979,0.2102,0.2086,0.209,0.2098,0.2107,0.2125,0.2157,0.2143,0.2145,0.2162,0.2174,0.2191,0.2192,0.222,0.2193,0.2195,0.2195,0.2196,0.2527,0.2535,0,0,0,0,0,0,0.1964,0.1975,0.2099,0.2105,0.2033,0.2102,0.2113,0.2136,0.2158,0.2163,0.2163,0.2163,0.2189,0.2191,0.2193,0.2342,0.2195,0.2196,0.2197,0.2519,0.2529,0.2538,0,0,0,0,0,0,0.1961,0.1975,0.2095,0.2044,0.2061,0.2106,0.2133,0.2139,0.2165,0.2175,0.2177,0.2184,0.2188,0.2191,0.2269,0.2337,0.2197,0.2198,0.251,0.2522,0.2533,0.2567,0,0,0,0,0,0,0.1955,0.1973,0.199,0.2045,0.2064,0.2157,0.2134,0.2142,0.2178,0.2178,0.2194,0.2193,0.2187,0.2268,0.2271,0.2337,0.2199,0.25,0.2516,0.253,0.2556,0.2578,0.2598,0,0,0,0,0,0.1949,0.1985,0.1991,0.2006,0.2086,0.2159,0.217,0.2195,0.218,0.2209,0.2249,0.2193,0.2367,0.2274,0.2276,0.2343,0.2493,0.2511,0.2528,0.2546,0.2574,0.2597,0,0,0,0,0,0,0.192,0.1992,0.1998,0.2053,0.2108,0.2162,0.2196,0.2205,0.2257,0.2258,0.2254,0.226,0.2371,0.2381,0.2278,0.2508,0.2437,0.2456,0.2451,0.2477,0.2498,0.2542,0.2201,0,0,0,0,0,0.1923,0.1969,0.2032,0.2077,0.2108,0.215,0.2181,0.2202,0.2254,0.2274,0.229,0.2355,0.245,0.2474,0.2546,0.2628,0.2725,0.2703,0.2724,0.274,0.2796,0.3026,0.307,0.2596,0.2596,0.2596,0,0,0.1921,0.197,0.1993,0.2075,0.2117,0.2182,0.2167,0.2229,0.2292,0.2268,0.2355,0.2413,0.2499,0.2619,0.2671,0.2622,0.2931,0.2763,0.2774,0.2822,0.3049,0.3094,0.3134,0.2608,0.2606,0.2604,0,0,0.1967,0.1991,0.2055,0.2101,0.2179,0.2211,0.2232,0.2298,0.2339,0.2428,0.2471,0.2603,0.2663,0.2787,0.2848,0.3045,0.3042,0.3047,0.3156,0.3377,0.3416,0.3452,0.3619,0.3669,0.3043,0.3043,0.3044,0,0.1964,0.2053,0.2084,0.2157,0.2206,0.2227,0.2306,0.2358,0.2441,0.252,0.247,0.2734,0.2778,0.3009,0.3082,0.3088,0.318,0.3016,0.3397,0.3434,0.347,0.3633,0.3688,0.3047,0.3047,0.3046,0.3046,0,0.2071,0.2128,0.2171,0.2269,0.2321,0.2391,0.2462,0.2526,0.2559,0.2635,0.2846,0.2942,0.3114,0.3153,0.3158,0.3452,0.3424,0.3389,0.33,0.3518,0.3678,0.3735,0.3053,0.3051,0.305,0.3049,0,0,0.2128,0.2224,0.224,0.2306,0.2386,0.2457,0.2557,0.2704,0.2829,0.2908,0.3103,0.329,0.3348,0.3436,0.3482,0.366,0.3972,0.3616,0.3626,0.3728,0.4426,0.4279,0.4325,0.3965,0.3975,0.3984,0.4426,0,0.2216,0.2361,0.2372,0.2507,0.2611,0.2631,0.2739,0.2866,0.297,0.3154,0.3308,0.3501,0.3451,0.3547,0.3726,0.3913,0.4126,0.3854,0.4253,0.4266,0.4063,0.439,0.4271,0.4645,0.4481,0.4491,0.4497,0,0.2379,0.2443,0.2581,0.2693,0.2733,0.2783,0.2982,0.3082,0.3315,0.341,0.3607,0.3702,0.3993,0.3908,0.4355,0.4162,0.4337,0.4462,0.4481,0.438,0.4226,0.4417,0.4753,0.4638,0.4584,0.4577,0.4571,0,0.2533,0.2623,0.2734,0.2767,0.2873,0.2925,0.2981,0.318,0.3341,0.359,0.3726,0.4019,0.4191,0.4452,0.4638,0.4541,0.5098,0.5003,0.5061,0.5048,0.5057,0.5026,0.5292,0.5414,0.5412,0.5411,0.541,0,0.2718,0.2816,0.2795,0.2867,0.3042,0.3032,0.3258,0.3361,0.3551,0.3752,0.3869,0.4065,0.4338,0.4611,0.478,0.5078,0.5232,0.5188,0.5204,0.5061,0.5028,0.5006,0.4938,0.5428,0.5424,0.5421,0.5418,0,0.2986,0.2942,0.3103,0.3129,0.3149,0.3296,0.3425,0.3541,0.3686,0.3939,0.4016,0.4236,0.4518,0.4762,0.5202,0.5264,0.5447,0.5631,0.5398,0.5376,0.5236,0.5174,0.5305,0.5168,0.5817,0.5816,0.5816,0,0.3179,0.3263,0.3334,0.3355,0.3361,0.3508,0.3562,0.3678,0.3758,0.4011,0.4093,0.4404,0.4555,0.5082,0.5319,0.5655,0.5489,0.5706,0.5527,0.5309,0.5258,0.4978,0.4831,0.5577,0.5575,0.5573,0.5572,0,0.3482,0.3465,0.3497,0.3584,0.3604,0.3712,0.3739,0.384,0.3904,0.4053,0.4158,0.429,0.4721,0.4967,0.5354,0.553,0.5427,0.5673,0.5591,0.5246,0.4839,0.468,0.5145,0.5556,0.5557,0.5559,0.5559,0.556,0.3625,0.3707,0.3637,0.3731,0.3747,0.3717,0.3757,0.3727,0.3832,0.389,0.4089,0.4226,0.4672,0.5166,0.5279,0.5423,0.5346,0.5389,0.539,0.5166,0.486,0.5229,0.5519,0.5521,0.5522,0.5523,0.5524,0,0.369,0.3666,0.374,0.3707,0.3672,0.3714,0.3694,0.3632,0.3604,0.3769,0.3857,0.4265,0.4575,0.4903,0.5272,0.521,0.4972,0.5109,0.4774,0.4686,0.5219,0.5024,0.5045,0.5045,0.5045,0.5045,0.5045,0.5045,0.365,0.3635,0.3648,0.3549,0.3528,0.3408,0.3365,0.3309,0.3373,0.3464,0.3659,0.3894,0.4398,0.4961,0.5087,0.5017,0.4686,0.4521,0.4454,0.4906,0.4931,0.4954,0.4757,0.472,0.472,0.3739,0.3733,0.3728]},{"header":{"parameterUnit":"m.s-1","parameterCategory":2,"la1":30.2991,"la2":30.254,"lo1":-89.0895,"lo2":-89.0444,"dy":0.0017,"dx":0.0017,"nx":28,"ny":28,"refTime":"2023-08-01T09:00:00:Z","depth":"0","parameterNumber":3,"parameterNumberName":"V-component_of_CURRENTS"},"data":[0,0,0,0,0,0,0,0,0,0,0,0,0,0,0,0,0,0,0,0,0,0,0,0,0,0,0,0,0,0,0,0,0,0,0,0,0,0,0,0,0,0,0,0,0,0,0,0,0,0,0,0,0,0,0,0,0,0,-0.0114,-0.0114,0,-0.0027,-0.0025,-0.0023,0.0072,0.0073,0.0074,0.0074,0.0142,0.0144,0.0145,0,0,0,0,0,0,0,0,0,0,0,0,0,-0.011,-0.0111,-0.0114,-0.0114,-0.0113,-0.0027,-0.0025,-0.0023,0.0072,0.0073,0.0074,0.0075,0.0142,0.0143,0.0145,0,0,0,0,0,0,0,0,0,0,0,0,0,-0.0069,-0.0111,-0.0114,-0.0061,-0.0056,-0.0027,-0.0025,-0.0022,0.0072,0.0073,0.0074,0.0075,0.0141,0.0143,0.0145,0.0137,0,0,0.0151,0.0151,0,0,0,0,0,0,0,0,-0.0071,-0.0068,-0.0069,-0.0065,-0.0059,0.0006,0.0001,0.0027,0.0072,0.0032,0.0074,0.0075,0.0089,0.0095,0.0121,0.014,0.0143,0.0151,0.0152,0.0153,0.0153,0,0,0,0,0,0,0,-0.0074,-0.0071,-0.0071,-0.0069,-0.0063,-0.0012,-0.0005,0.0008,0.006,0.0036,0.0041,0.0037,0.0093,0.0119,0.0123,0.0144,0.0151,0.0152,0.0153,0.0154,0.0279,0.0281,0,0,0,0,0,0,-0.0107,-0.0074,-0.0074,-0.0069,-0.0072,-0.0014,-0.0006,-0.0009,0.006,0.007,0.0036,0.0041,0.0116,0.0121,0.0126,0.023,0.0153,0.0154,0.0155,0.0277,0.0279,0.0282,0,0,0,0,0,0,-0.0108,-0.0108,-0.0078,-0.0076,-0.0069,-0.0017,-0.0021,-0.0008,0.0017,0.006,0.0071,0.0048,0.0117,0.0123,0.0139,0.0228,0.0155,0.0157,0.0274,0.0278,0.0281,0.0366,0,0,0,0,0,0,-0.0108,-0.0109,-0.0114,-0.0079,-0.0071,-0.0061,-0.0022,-0.0008,0.0009,0.0017,0.0072,0.0081,0.0118,0.0136,0.014,0.023,0.0158,0.0271,0.0276,0.028,0.0361,0.0372,0.0382,0,0,0,0,0,-0.0108,-0.0113,-0.0114,-0.0114,-0.0083,-0.0062,-0.0052,-0.0005,0.0008,0.0022,0.0055,0.0079,0.0168,0.0137,0.0142,0.0235,0.0269,0.0274,0.0279,0.0356,0.037,0.0382,0,0,0,0,0,0,-0.0109,-0.0104,-0.0104,-0.0107,-0.0093,-0.0049,-0.0034,-0.0017,0.0022,0.0029,0.0071,0.0081,0.0146,0.0153,0.0118,0.0284,0.0237,0.0243,0.0294,0.0307,0.0318,0.0418,0.016,0,0,0,0,0,-0.0121,-0.012,-0.0113,-0.0115,-0.0114,-0.0081,-0.0067,-0.0042,-0.0012,0.0008,0.0043,0.0096,0.0171,0.0202,0.0246,0.0301,0.0347,0.0375,0.0385,0.0394,0.048,0.0597,0.0627,0.0298,0.0298,0.0298,0,0,-0.0121,-0.0121,-0.0119,-0.0116,-0.0098,-0.0067,-0.0066,-0.005,0.0016,0.0004,0.0089,0.0115,0.0187,0.028,0.0313,0.0297,0.0496,0.0401,0.0408,0.0491,0.0605,0.0638,0.0667,0.0302,0.0301,0.03,0,0,-0.0102,-0.0127,-0.0108,-0.0105,-0.0096,-0.0068,-0.0073,-0.0041,0.0016,0.0061,0.0114,0.0194,0.0242,0.0367,0.0428,0.0516,0.0538,0.0512,0.0664,0.0773,0.0803,0.0829,0.0862,0.0892,0.0529,0.0529,0.053,0,-0.0096,-0.0072,-0.0099,-0.0082,-0.0045,-0.007,-0.0012,0.0027,0.0069,0.0175,0.0095,0.0315,0.0324,0.0565,0.0595,0.0555,0.058,0.0605,0.0791,0.0819,0.0846,0.0873,0.0905,0.0534,0.0534,0.0533,0.0533,0,-0.0045,-0.0037,-0.0031,0.0001,0.003,0.0059,0.0103,0.0163,0.0198,0.028,0.0471,0.0492,0.0664,0.0658,0.0647,0.0879,0.0819,0.0777,0.0764,0.0885,0.0904,0.0935,0.0541,0.0539,0.0538,0.0537,0,0,0.0049,0.0016,0.0027,0.0093,0.0087,0.0159,0.0246,0.0408,0.0587,0.0588,0.0845,0.0923,0.0964,0.1038,0.1047,0.1124,0.1259,0.1029,0.1032,0.1073,0.1453,0.1297,0.1315,0.1236,0.1244,0.125,0.1367,0,0.0128,0.0196,0.0156,0.0285,0.0364,0.0373,0.0497,0.0634,0.075,0.0965,0.1052,0.1244,0.1103,0.1203,0.1264,0.1304,0.1357,0.1229,0.1326,0.133,0.1188,0.1354,0.1228,0.1315,0.1397,0.1402,0.1406,0,0.0273,0.0297,0.0404,0.054,0.0579,0.0636,0.093,0.1029,0.1276,0.1386,0.1568,0.1616,0.1801,0.1609,0.1751,0.1669,0.1586,0.1548,0.1551,0.1428,0.1238,0.1222,0.1368,0.1021,0.1454,0.145,0.1447,0,0.0511,0.0544,0.0657,0.0676,0.0763,0.0871,0.0953,0.1185,0.1384,0.1668,0.1844,0.2025,0.2148,0.2117,0.1982,0.1901,0.2069,0.195,0.173,0.1713,0.1649,0.1615,0.1501,0.204,0.204,0.204,0.2039,0,0.0712,0.0831,0.0766,0.0837,0.107,0.1058,0.137,0.1502,0.1737,0.2018,0.207,0.2309,0.2276,0.2328,0.2155,0.2054,0.2207,0.1836,0.1783,0.1659,0.1626,0.1352,0.1173,0.2044,0.2043,0.2042,0.2041,0,0.1033,0.0946,0.111,0.1149,0.1186,0.1374,0.1572,0.1793,0.1966,0.2324,0.2416,0.2607,0.2668,0.2553,0.2529,0.2293,0.198,0.2076,0.1886,0.1809,0.1261,0.1092,0.1089,0.0877,0.1927,0.1925,0.1923,0,0.1224,0.13,0.1362,0.1419,0.1429,0.1636,0.1774,0.194,0.214,0.2496,0.2667,0.2831,0.2958,0.2842,0.2491,0.2222,0.1917,0.1874,0.1709,0.1285,0.1061,0.0991,0.0806,0.1628,0.1624,0.162,0.1618,0,0.1551,0.1524,0.1583,0.169,0.1795,0.2003,0.2164,0.2362,0.2553,0.2799,0.3058,0.3174,0.3052,0.2782,0.2377,0.212,0.1584,0.1789,0.1461,0.0943,0.0769,0.0516,0.1425,0.1586,0.159,0.1592,0.1594,0.1595,0.1739,0.1831,0.1795,0.1938,0.2069,0.2254,0.2431,0.258,0.2864,0.3158,0.3271,0.3447,0.303,0.2487,0.2061,0.1219,0.1329,0.0962,0.083,0.083,0.0526,0.132,0.1334,0.1335,0.1336,0.1338,0.1339,0,0.1868,0.1885,0.2022,0.2113,0.2277,0.2326,0.2593,0.2733,0.2978,0.3275,0.3461,0.3403,0.2713,0.2065,0.0992,0.0385,0.0159,0.0073,-0.0059,-0.0179,0.063,0.0503,0.0205,0.0205,0.0206,0.0206,0.0207,0.0207,0.1877,0.1946,0.1996,0.2208,0.2313,0.2518,0.2663,0.2873,0.3103,0.3413,0.358,0.3738,0.3276,0.1332,-0.0102,-0.0459,-0.0893,-0.0924,-0.1118,-0.063,-0.0557,-0.0489,-0.0651,-0.1186,-0.1188,-0.1911,-0.1919,-0.1924]}],[{"header":{"parameterUnit":"m.s-1","parameterCategory":2,"la1":30.2991,"la2":30.254,"lo1":-89.0895,"lo2":-89.0444,"dy":0.0017,"dx":0.0017,"nx":28,"ny":28,"refTime":"2023-08-01T09:00:00:Z","depth":"2","parameterNumber":2,"parameterNumberName":"U-component_of_CURRENTS"},"data":[0,0,0,0,0,0,0,0,0,0,0,0,0,0,0,0,0,0,0,0,0,0,0,0,0,0,0,0,0,0,0,0,0,0,0,0,0,0,0,0,0,0,0,0,0,0,0,0,0,0,0,0,0,0,0,0,0,0,0.1855,0.1855,0,0.1888,0.1888,0.1888,0.1884,0.1884,0.1883,0.1883,0.1862,0.1862,0.1862,0,0,0,0,0,0,0,0,0,0,0,0,0,0.1784,0.1786,0.1854,0.1855,0.1855,0.1887,0.1888,0.1888,0.1884,0.1884,0.1883,0.1883,0.1862,0.1862,0.1862,0,0,0,0,0,0,0,0,0,0,0,0,0,0.1815,0.1786,0.1854,0.1858,0.1859,0.1887,0.1888,0.1888,0.1885,0.1884,0.1883,0.1883,0.1862,0.1862,0.1862,0.1875,0,0,0.1862,0.1861,0,0,0,0,0,0,0,0,0.1813,0.1818,0.1857,0.1858,0.1859,0.1882,0.1856,0.1881,0.1885,0.1874,0.1883,0.1882,0.1865,0.1864,0.1872,0.1874,0.1873,0.1862,0.1861,0.1861,0.1861,0,0,0,0,0,0,0,0.1811,0.1816,0.1867,0.1858,0.1859,0.1857,0.186,0.1861,0.1871,0.1875,0.1875,0.188,0.1865,0.1872,0.1871,0.1873,0.1862,0.1861,0.1861,0.1861,0.1927,0.1929,0,0,0,0,0,0,0.181,0.1815,0.1866,0.1868,0.1835,0.1859,0.1863,0.1874,0.1872,0.1872,0.188,0.188,0.1873,0.1871,0.187,0.1932,0.1861,0.1861,0.1861,0.1925,0.1928,0.193,0,0,0,0,0,0,0.1809,0.1815,0.1864,0.1842,0.1848,0.1861,0.1874,0.1875,0.1887,0.1878,0.1876,0.1891,0.1872,0.1871,0.1887,0.1929,0.1861,0.1861,0.1923,0.1926,0.1929,0.2024,0,0,0,0,0,0,0.1807,0.1814,0.1827,0.1842,0.1849,0.1893,0.1875,0.1877,0.1891,0.189,0.1886,0.1883,0.1872,0.1887,0.1887,0.1927,0.1861,0.1921,0.1924,0.1928,0.2018,0.2029,0.2039,0,0,0,0,0,0.1804,0.1822,0.1827,0.1834,0.1865,0.1895,0.1899,0.1904,0.1892,0.1909,0.1907,0.1883,0.1909,0.1889,0.1887,0.1929,0.1919,0.1923,0.1927,0.2014,0.2027,0.2039,0,0,0,0,0,0,0.1798,0.1824,0.183,0.1855,0.1879,0.1894,0.1908,0.191,0.1922,0.1918,0.1903,0.1901,0.1931,0.1916,0.1894,0.1959,0.1912,0.1916,0.1978,0.1991,0.2001,0.2015,0.1861,0,0,0,0,0,0.1804,0.1822,0.1849,0.187,0.1883,0.1897,0.1909,0.1916,0.1927,0.1931,0.1931,0.1933,0.1949,0.1957,0.1961,0.1994,0.1998,0.2022,0.2032,0.2041,0.2053,0.2094,0.2109,0.1943,0.1943,0.1943,0,0,0.1804,0.1823,0.1832,0.187,0.1885,0.1924,0.1903,0.1928,0.1962,0.1927,0.1967,0.1964,0.1964,0.2005,0.2018,0.1998,0.2095,0.2046,0.2054,0.2061,0.21,0.2116,0.213,0.1946,0.1946,0.1945,0,0,0.1823,0.1836,0.1863,0.1891,0.1925,0.194,0.1951,0.1977,0.1991,0.203,0.2018,0.2046,0.2059,0.2082,0.2091,0.2162,0.2144,0.2158,0.2229,0.227,0.2284,0.2296,0.2341,0.2357,0.217,0.217,0.217,0,0.1824,0.1867,0.1876,0.1918,0.1946,0.1952,0.1997,0.2019,0.2049,0.2069,0.2053,0.2106,0.2105,0.2169,0.2199,0.2188,0.2203,0.2182,0.2284,0.2296,0.2307,0.235,0.2366,0.2175,0.2174,0.2174,0.2173,0,0.1871,0.191,0.1928,0.1986,0.2018,0.2053,0.209,0.2119,0.2132,0.2155,0.2211,0.2221,0.2256,0.2267,0.2257,0.2341,0.2325,0.2288,0.2253,0.233,0.237,0.2385,0.2182,0.218,0.2179,0.2178,0,0,0.1867,0.1945,0.1956,0.1993,0.2057,0.2085,0.2147,0.2205,0.2246,0.228,0.234,0.2385,0.2387,0.2399,0.2396,0.2438,0.2538,0.2404,0.2404,0.2451,0.2638,0.2632,0.2647,0.2517,0.2519,0.2521,0.2641,0,0.1906,0.1987,0.2022,0.2101,0.2145,0.2178,0.2236,0.2287,0.2325,0.2383,0.2412,0.2466,0.2439,0.2468,0.2508,0.253,0.2579,0.251,0.2554,0.2556,0.2543,0.2665,0.2438,0.2526,0.2655,0.2658,0.266,0,0.1952,0.1998,0.208,0.2159,0.2181,0.223,0.2314,0.2368,0.2447,0.2476,0.2537,0.2557,0.2646,0.2595,0.2694,0.265,0.2658,0.2666,0.267,0.264,0.2578,0.2466,0.2548,0.2684,0.2682,0.268,0.2679,0,0.1948,0.2042,0.2103,0.2134,0.2224,0.2265,0.2313,0.2395,0.2452,0.2545,0.2606,0.2678,0.2748,0.2768,0.282,0.2757,0.292,0.2827,0.2831,0.283,0.2635,0.2613,0.2891,0.2891,0.2891,0.2891,0.289,0,0.1979,0.2029,0.2104,0.214,0.2203,0.2271,0.2351,0.2404,0.2509,0.2583,0.2657,0.275,0.2797,0.2895,0.2881,0.2945,0.298,0.2881,0.2875,0.2664,0.2644,0.2762,0.2745,0.2895,0.2894,0.2893,0.2892,0,0.1964,0.2026,0.2088,0.2176,0.2204,0.2246,0.236,0.2412,0.2532,0.2639,0.2683,0.2846,0.298,0.3039,0.311,0.3053,0.3085,0.3088,0.2855,0.2819,0.2938,0.2925,0.3079,0.308,0.3081,0.3082,0.3083,0,0.1958,0.1992,0.2083,0.2108,0.2147,0.2222,0.2266,0.2393,0.2461,0.2692,0.2743,0.2949,0.3064,0.3217,0.3167,0.318,0.3192,0.2956,0.2787,0.2987,0.2965,0.295,0.2936,0.2566,0.2563,0.256,0.2557,0,0.1916,0.1954,0.1994,0.2048,0.2096,0.2163,0.225,0.2316,0.2474,0.2613,0.282,0.2953,0.3116,0.3071,0.3111,0.3048,0.2931,0.2897,0.3191,0.2563,0.2515,0.249,0.249,0.2531,0.2534,0.2535,0.2537,0.2538,0.1851,0.1862,0.1911,0.1963,0.2024,0.2088,0.2125,0.2246,0.2381,0.2509,0.2705,0.2802,0.2874,0.2821,0.2773,0.2707,0.2857,0.2678,0.2681,0.2689,0.2618,0.2576,0.259,0.2592,0.2595,0.2597,0.2599,0,0.1736,0.1779,0.1817,0.188,0.1916,0.1995,0.2094,0.212,0.2249,0.2344,0.2472,0.2309,0.2353,0.2439,0.2317,0.2317,0.2209,0.221,0.2056,0.2087,0.2113,0.2005,0.1818,0.1815,0.1813,0.181,0,0,0.1669,0.167,0.171,0.1749,0.1813,0.1846,0.1894,0.1953,0.2025,0.1991,0.1992,0.2124,0.2349,0.2021,0.2015,0.1924,0.1962,0.183,0.2465,0.2315,0.2337,0.2407,0.2281,0,0,0,0,0]},{"header":{"parameterUnit":"m.s-1","parameterCategory":2,"la1":30.2991,"la2":30.254,"lo1":-89.0895,"lo2":-89.0444,"dy":0.0017,"dx":0.0017,"nx":28,"ny":28,"refTime":"2023-08-01T09:00:00:Z","depth":"2","parameterNumber":3,"parameterNumberName":"V-component_of_CURRENTS"},"data":[0,0,0,0,0,0,0,0,0,0,0,0,0,0,0,0,0,0,0,0,0,0,0,0,0,0,0,0,0,0,0,0,0,0,0,0,0,0,0,0,0,0,0,0,0,0,0,0,0,0,0,0,0,0,0,0,0,0,-0.0734,-0.0735,0,-0.0786,-0.0786,-0.0787,-0.0851,-0.0852,-0.0853,-0.0854,-0.0907,-0.0908,-0.0908,0,0,0,0,0,0,0,0,0,0,0,0,0,-0.07,-0.07,-0.0734,-0.0735,-0.0735,-0.0786,-0.0786,-0.0787,-0.0851,-0.0852,-0.0853,-0.0854,-0.0907,-0.0908,-0.0908,0,0,0,0,0,0,0,0,0,0,0,0,0,-0.073,-0.07,-0.0734,-0.0773,-0.0777,-0.0786,-0.0786,-0.0787,-0.085,-0.0852,-0.0853,-0.0855,-0.0907,-0.0908,-0.0908,-0.0883,0,0,-0.0911,-0.0911,0,0,0,0,0,0,0,0,-0.0728,-0.0731,-0.0767,-0.077,-0.0775,-0.0813,-0.0794,-0.0819,-0.085,-0.0823,-0.0854,-0.0856,-0.0875,-0.0878,-0.0885,-0.0885,-0.0888,-0.0911,-0.0911,-0.0912,-0.0912,0,0,0,0,0,0,0,-0.0726,-0.0729,-0.0755,-0.0767,-0.0772,-0.0791,-0.0797,-0.0799,-0.084,-0.0825,-0.083,-0.0835,-0.0877,-0.0884,-0.0887,-0.0889,-0.0911,-0.0911,-0.0912,-0.0912,-0.0917,-0.0917,0,0,0,0,0,0,-0.0717,-0.0727,-0.0753,-0.0756,-0.0755,-0.0791,-0.0797,-0.08,-0.084,-0.0848,-0.0834,-0.0838,-0.0882,-0.0886,-0.0889,-0.0888,-0.0912,-0.0912,-0.0913,-0.0917,-0.0917,-0.0917,0,0,0,0,0,0,-0.0716,-0.0719,-0.0751,-0.0743,-0.0749,-0.079,-0.0792,-0.08,-0.0817,-0.0846,-0.0854,-0.0844,-0.0883,-0.0888,-0.09,-0.0889,-0.0913,-0.0913,-0.0918,-0.0917,-0.0917,-0.0869,0,0,0,0,0,0,-0.0715,-0.0718,-0.0718,-0.0742,-0.0749,-0.0751,-0.0791,-0.08,-0.0817,-0.0823,-0.0857,-0.0864,-0.0885,-0.0899,-0.0901,-0.0891,-0.0914,-0.0918,-0.0918,-0.0917,-0.0871,-0.0867,-0.0863,0,0,0,0,0,-0.0713,-0.0697,-0.0718,-0.0721,-0.0747,-0.075,-0.0755,-0.079,-0.0816,-0.0813,-0.0846,-0.0863,-0.0897,-0.0899,-0.0902,-0.0891,-0.0918,-0.0918,-0.0917,-0.0872,-0.0867,-0.0863,0,0,0,0,0,0,-0.0679,-0.0703,-0.0726,-0.0719,-0.0735,-0.0761,-0.076,-0.0787,-0.0809,-0.082,-0.0855,-0.0863,-0.0871,-0.0886,-0.0887,-0.0892,-0.0911,-0.0911,-0.0876,-0.0872,-0.0868,-0.0866,-0.0914,0,0,0,0,0,-0.0672,-0.0669,-0.0697,-0.0691,-0.0697,-0.073,-0.0738,-0.0761,-0.0784,-0.0797,-0.0823,-0.085,-0.0866,-0.0874,-0.0889,-0.0884,-0.0923,-0.0882,-0.0878,-0.0874,-0.0875,-0.0937,-0.094,-0.0914,-0.0914,-0.0914,0,0,-0.0656,-0.0669,-0.0669,-0.0684,-0.07,-0.0693,-0.0739,-0.0744,-0.0745,-0.0796,-0.0804,-0.0835,-0.0863,-0.0866,-0.0871,-0.0879,-0.0899,-0.0873,-0.087,-0.0873,-0.0937,-0.094,-0.0942,-0.0914,-0.0914,-0.0914,0,0,-0.0612,-0.0636,-0.0618,-0.0627,-0.0647,-0.0666,-0.0667,-0.0695,-0.0717,-0.0725,-0.0768,-0.0797,-0.0811,-0.0838,-0.0851,-0.0833,-0.0878,-0.0835,-0.0811,-0.0871,-0.0874,-0.0877,-0.0919,-0.0926,-0.0831,-0.0831,-0.0831,0,-0.0595,-0.0581,-0.0612,-0.0596,-0.0602,-0.065,-0.0633,-0.065,-0.0682,-0.0702,-0.072,-0.0778,-0.0798,-0.0822,-0.0816,-0.0824,-0.0864,-0.0824,-0.0867,-0.0871,-0.0875,-0.0917,-0.0926,-0.0829,-0.0829,-0.0829,-0.083,0,-0.0538,-0.0532,-0.0519,-0.0521,-0.0529,-0.052,-0.0552,-0.0567,-0.0602,-0.0633,-0.0672,-0.0716,-0.0757,-0.0763,-0.0781,-0.0815,-0.0835,-0.0857,-0.0879,-0.0875,-0.0919,-0.0929,-0.0826,-0.0826,-0.0827,-0.0828,0,0,-0.0493,-0.0481,-0.0479,-0.0479,-0.0492,-0.0496,-0.0495,-0.0519,-0.0535,-0.0578,-0.0605,-0.0646,-0.0696,-0.0715,-0.0755,-0.08,-0.0853,-0.0834,-0.0839,-0.0875,-0.0981,-0.0884,-0.0885,-0.089,-0.0892,-0.0893,-0.0996,0,-0.0444,-0.0403,-0.0411,-0.0386,-0.0377,-0.0417,-0.0416,-0.0449,-0.0488,-0.0521,-0.0591,-0.0622,-0.067,-0.0692,-0.075,-0.0822,-0.0879,-0.0822,-0.0979,-0.0984,-0.0898,-0.0893,-0.085,-0.0929,-0.1006,-0.1008,-0.1009,0,-0.0399,-0.0379,-0.0342,-0.0344,-0.0344,-0.0336,-0.0371,-0.0375,-0.0431,-0.0462,-0.0524,-0.0577,-0.0644,-0.0685,-0.0833,-0.0798,-0.0888,-0.095,-0.0957,-0.089,-0.0904,-0.0948,-0.0944,-0.1026,-0.1024,-0.1023,-0.1022,0,-0.0384,-0.0343,-0.0317,-0.0314,-0.0313,-0.0315,-0.0323,-0.0366,-0.0362,-0.0429,-0.0423,-0.0546,-0.057,-0.0719,-0.0824,-0.0847,-0.0977,-0.103,-0.1035,-0.103,-0.1034,-0.1024,-0.1152,-0.1152,-0.1151,-0.1151,-0.1151,0,-0.0353,-0.0344,-0.0308,-0.0302,-0.0274,-0.0294,-0.0284,-0.031,-0.0323,-0.0288,-0.0394,-0.0371,-0.0579,-0.066,-0.0811,-0.0921,-0.0975,-0.1026,-0.1048,-0.1011,-0.0998,-0.1117,-0.1112,-0.1155,-0.1154,-0.1153,-0.1153,0,-0.0371,-0.0344,-0.0319,-0.029,-0.0272,-0.0268,-0.0229,-0.0213,-0.0231,-0.0183,-0.0186,-0.0247,-0.0335,-0.0524,-0.0731,-0.0854,-0.1002,-0.1034,-0.0953,-0.0961,-0.1034,-0.1025,-0.1086,-0.1084,-0.1082,-0.108,-0.1078,0,-0.0382,-0.0364,-0.0306,-0.0269,-0.0255,-0.0225,-0.0186,-0.018,-0.0134,-0.0073,-0.0028,-0.008,-0.0064,-0.0319,-0.0571,-0.0818,-0.0898,-0.0936,-0.0968,-0.1011,-0.1027,-0.1022,-0.1016,-0.0972,-0.097,-0.0968,-0.0967,0,-0.0391,-0.0371,-0.0333,-0.0244,-0.0191,-0.0125,-0.006,0.0014,0.0063,0.0154,0.029,0.0319,0.0103,-0.0095,-0.0425,-0.0603,-0.0896,-0.09,-0.0996,-0.0957,-0.0901,-0.0917,-0.0917,-0.095,-0.0952,-0.0953,-0.0954,-0.0954,-0.0387,-0.0355,-0.0274,-0.0197,-0.012,0.0003,0.0103,0.0224,0.038,0.0568,0.0547,0.0624,0.0309,-0.0047,-0.0343,-0.0682,-0.0719,-0.0865,-0.0874,-0.0883,-0.0813,-0.0752,-0.0761,-0.0762,-0.0762,-0.0762,-0.0763,0,-0.0343,-0.0289,-0.0217,-0.0091,0.0023,0.0048,0.0225,0.0376,0.0643,0.0768,0.0912,0.0702,0.046,0.0101,-0.0364,-0.0647,-0.0723,-0.0741,-0.0797,-0.0811,-0.0824,-0.0754,-0.0685,-0.0685,-0.0686,-0.0686,0,0,-0.03,-0.0209,-0.0164,0.0039,0.0134,0.0337,0.0471,0.0708,0.0856,0.1059,0.11,0.1044,0.0593,0.0276,-0.0139,-0.0398,-0.0532,-0.0448,-0.0483,-0.0513,-0.0521,-0.0871,-0.0774,0,0,0,0,0]}],[{"header":{"parameterUnit":"m.s-1","parameterCategory":2,"la1":30.2991,"la2":30.254,"lo1":-89.0895,"lo2":-89.0444,"dy":0.0017,"dx":0.0017,"nx":28,"ny":28,"refTime":"2023-08-01T09:00:00:Z","depth":"4","parameterNumber":2,"parameterNumberName":"U-component_of_CURRENTS"},"data":[0,0,0,0,0,0,0,0,0,0,0,0,0,0,0,0,0,0,0,0,0,0,0,0,0,0,0,0,0,0,0,0,0,0,0,0,0,0,0,0,0,0,0,0,0,0,0,0,0,0,0,0,0,0,0,0,0,0,0.0886,0.0887,0,0.0946,0.0946,0.0947,0.0995,0.0995,0.0996,0.0996,0.104,0.1041,0.1042,0,0,0,0,0,0,0,0,0,0,0,0,0,0.0831,0.0831,0.0886,0.0887,0.0887,0.0946,0.0946,0.0947,0.0994,0.0995,0.0996,0.0996,0.104,0.1041,0.1042,0,0,0,0,0,0,0,0,0,0,0,0,0,0.0868,0.0831,0.0886,0.0919,0.0922,0.0946,0.0946,0.0947,0.0994,0.0995,0.0996,0.0997,0.104,0.1041,0.1042,0.1032,0,0,0.1045,0.1045,0,0,0,0,0,0,0,0,0.0866,0.087,0.0913,0.0916,0.0921,0.0964,0.0943,0.0975,0.0994,0.0966,0.0996,0.0997,0.1013,0.1017,0.1025,0.1034,0.1036,0.1045,0.1046,0.1046,0.1046,0,0,0,0,0,0,0,0.0863,0.0868,0.0909,0.0914,0.0918,0.0937,0.0943,0.095,0.0983,0.0969,0.0972,0.098,0.1015,0.1024,0.1026,0.1036,0.1045,0.1046,0.1046,0.1047,0.1138,0.114,0,0,0,0,0,0,0.0856,0.0865,0.0907,0.0911,0.0896,0.0937,0.0944,0.0949,0.0984,0.099,0.0979,0.0982,0.1022,0.1025,0.1028,0.1114,0.1046,0.1047,0.1048,0.1137,0.1139,0.1141,0,0,0,0,0,0,0.0854,0.0859,0.0905,0.089,0.0897,0.0937,0.0942,0.0949,0.0991,0.0992,0.0999,0.1018,0.1023,0.1027,0.1085,0.1112,0.1047,0.1048,0.1134,0.1137,0.114,0.1223,0,0,0,0,0,0,0.0852,0.0858,0.0873,0.0889,0.0898,0.0938,0.0942,0.095,0.0993,0.0998,0.1026,0.103,0.1024,0.1084,0.1086,0.1112,0.1049,0.1132,0.1136,0.1139,0.1218,0.1229,0.1237,0,0,0,0,0,0.085,0.0854,0.0873,0.0879,0.0913,0.0939,0.0946,0.0976,0.0994,0.1017,0.1056,0.1031,0.1106,0.1087,0.1089,0.1116,0.113,0.1135,0.1139,0.1214,0.1227,0.1237,0,0,0,0,0,0,0.0833,0.086,0.0881,0.0894,0.0929,0.0948,0.0968,0.0995,0.1042,0.106,0.1063,0.107,0.1126,0.1114,0.1093,0.1153,0.111,0.1115,0.1166,0.1178,0.1188,0.1196,0.105,0,0,0,0,0,0.0838,0.0856,0.0885,0.0903,0.0917,0.0953,0.0974,0.1003,0.1038,0.1061,0.1088,0.1114,0.1137,0.1156,0.1171,0.1209,0.1202,0.1225,0.1235,0.1243,0.1252,0.1278,0.1291,0.1154,0.1154,0.1154,0,0,0.0836,0.0856,0.0866,0.0903,0.0928,0.0956,0.0968,0.1011,0.1049,0.1056,0.1126,0.1152,0.1157,0.1205,0.1227,0.1204,0.1279,0.1248,0.1255,0.126,0.1284,0.1297,0.1309,0.1157,0.1157,0.1156,0,0,0.0839,0.086,0.088,0.0908,0.096,0.0979,0.1,0.1051,0.1089,0.1153,0.1174,0.123,0.1257,0.1281,0.1288,0.1358,0.133,0.1359,0.1415,0.1441,0.1452,0.1462,0.1472,0.1482,0.1363,0.1363,0.1363,0,0.0847,0.0865,0.0892,0.092,0.0948,0.0992,0.1026,0.1063,0.1137,0.1181,0.1184,0.1279,0.1287,0.1351,0.1384,0.1379,0.1388,0.137,0.1454,0.1463,0.1472,0.1479,0.1489,0.1367,0.1367,0.1366,0.1366,0,0.0853,0.0886,0.0897,0.0948,0.0985,0.1018,0.107,0.113,0.1181,0.1224,0.1318,0.1353,0.1407,0.1421,0.1426,0.1502,0.1486,0.1463,0.1423,0.1491,0.1494,0.1503,0.1374,0.1372,0.1371,0.137,0,0,0.0828,0.0892,0.09,0.0933,0.1006,0.1031,0.1106,0.1181,0.124,0.1316,0.1391,0.1458,0.1498,0.1511,0.1535,0.1571,0.1644,0.1558,0.1557,0.1565,0.1704,0.1632,0.1634,0.1644,0.1646,0.1647,0.1681,0,0.0834,0.0881,0.092,0.0978,0.1005,0.1077,0.1134,0.1218,0.1294,0.1378,0.144,0.1524,0.1522,0.1579,0.161,0.1643,0.1672,0.1637,0.1638,0.1638,0.1565,0.1643,0.1654,0.1688,0.169,0.1691,0.1692,0,0.0824,0.086,0.0915,0.0998,0.1017,0.107,0.1185,0.1248,0.1372,0.1444,0.1543,0.1592,0.1688,0.1664,0.1739,0.1722,0.1724,0.1734,0.1734,0.1644,0.1583,0.1606,0.1708,0.1706,0.1705,0.1704,0.1703,0,0.0765,0.0855,0.09,0.0926,0.1024,0.1088,0.1156,0.1283,0.1356,0.1518,0.1589,0.1686,0.1752,0.178,0.1814,0.179,0.1873,0.1823,0.1754,0.1748,0.1761,0.175,0.1864,0.1864,0.1863,0.1863,0.1863,0,0.0729,0.0756,0.0889,0.0896,0.0973,0.1073,0.1173,0.1265,0.1414,0.1501,0.1628,0.1704,0.179,0.1843,0.1845,0.1838,0.1893,0.1783,0.1762,0.1795,0.1788,0.1767,0.1756,0.1865,0.1864,0.1864,0.1864,0,0.0631,0.0709,0.0749,0.0877,0.0938,0.099,0.1169,0.1235,0.1407,0.1527,0.1594,0.1742,0.1828,0.1884,0.194,0.1872,0.1881,0.186,0.1911,0.189,0.1721,0.1714,0.1768,0.1766,0.1764,0.1762,0.1761,0,0.0577,0.0602,0.0717,0.0753,0.0816,0.094,0.102,0.1214,0.1296,0.1531,0.1562,0.1724,0.1803,0.1817,0.1885,0.1899,0.1873,0.1853,0.1773,0.1742,0.1717,0.1712,0.1707,0.1758,0.1758,0.1758,0.1757,0,0.0475,0.0522,0.0555,0.0632,0.0719,0.0818,0.096,0.102,0.1241,0.1398,0.1528,0.1616,0.1702,0.1758,0.1807,0.1802,0.1856,0.1834,0.1835,0.176,0.1732,0.1707,0.1704,0.1751,0.1752,0.1753,0.1753,0,0.0398,0.0394,0.0449,0.0521,0.0616,0.0694,0.0777,0.0917,0.1042,0.1317,0.135,0.1532,0.1678,0.1708,0.1745,0.1761,0.1712,0.163,0.1641,0.1649,0.1599,0.1546,0.1508,0,0,0,0,0,0.0331,0.0324,0.035,0.0418,0.0505,0.0578,0.0741,0.0838,0.1058,0.1111,0.1247,0.1343,0.1462,0.1545,0.1535,0.1661,0.1691,0.1639,0.1593,0.1718,0.1725,0.1681,0,0,0,0,0,0,0.0278,0.0282,0.0303,0.0346,0.0387,0.0488,0.059,0.0727,0.078,0.1,0.1065,0.1246,0.1361,0.1451,0.1502,0.1529,0.1469,0.1759,0.1755,0.1715,0.1721,0.1726,0.1683,0,0,0,0,0]},{"header":{"parameterUnit":"m.s-1","parameterCategory":2,"la1":30.2991,"la2":30.254,"lo1":-89.0895,"lo2":-89.0444,"dy":0.0017,"dx":0.0017,"nx":28,"ny":28,"refTime":"2023-08-01T09:00:00:Z","depth":"4","parameterNumber":3,"parameterNumberName":"V-component_of_CURRENTS"},"data":[0,0,0,0,0,0,0,0,0,0,0,0,0,0,0,0,0,0,0,0,0,0,0,0,0,0,0,0,0,0,0,0,0,0,0,0,0,0,0,0,0,0,0,0,0,0,0,0,0,0,0,0,0,0,0,0,0,0,0.0101,0.01,0,0.0063,0.0063,0.0063,0.0017,0.0016,0.0015,0.0014,-0.0052,-0.0053,-0.0054,0,0,0,0,0,0,0,0,0,0,0,0,0,0.0053,0.0055,0.0101,0.01,0.01,0.0063,0.0063,0.0062,0.0017,0.0016,0.0015,0.0014,-0.0052,-0.0053,-0.0054,0,0,0,0,0,0,0,0,0,0,0,0,0,0.0051,0.0055,0.0101,0.0072,0.0069,0.0064,0.0063,0.0062,0.0017,0.0016,0.0015,0.0014,-0.0052,-0.0053,-0.0055,-0.0042,0,0,-0.006,-0.006,0,0,0,0,0,0,0,0,0.0051,0.0053,0.0077,0.0074,0.0071,0.0043,0.0021,0.0026,0.0017,0.0037,0.0014,0.0013,-0.0022,-0.0026,-0.003,-0.0045,-0.0048,-0.006,-0.0061,-0.0061,-0.0062,0,0,0,0,0,0,0,0.0052,0.0054,0.0086,0.0077,0.0073,0.0034,0.0033,0.0022,0.0014,0.0035,0.0032,0.0028,-0.0024,-0.0028,-0.0032,-0.0049,-0.006,-0.0061,-0.0062,-0.0063,-0.0122,-0.0123,0,0,0,0,0,0,0.0062,0.0055,0.0087,0.0085,0.0058,0.0036,0.0035,0.0054,0.0014,0.0008,0.0029,0.0026,-0.0025,-0.003,-0.0035,-0.0067,-0.0061,-0.0063,-0.0064,-0.0121,-0.0122,-0.0123,0,0,0,0,0,0,0.0061,0.0066,0.0089,0.0067,0.0067,0.0039,0.0059,0.0053,0.0044,0.001,0.0002,0.0025,-0.0026,-0.0032,-0.0058,-0.0069,-0.0064,-0.0065,-0.0121,-0.0122,-0.0122,-0.0103,0,0,0,0,0,0,0.006,0.0067,0.0082,0.0069,0.0069,0.0091,0.006,0.0053,0.0044,0.0039,0.0004,-0.0003,-0.0028,-0.0055,-0.0059,-0.0071,-0.0066,-0.012,-0.0121,-0.0122,-0.0103,-0.0104,-0.0104,0,0,0,0,0,0.0059,0.0088,0.0084,0.0087,0.0093,0.0092,0.0089,0.0063,0.0045,0.0049,0.0012,-0.0002,-0.0066,-0.0056,-0.0061,-0.0074,-0.0119,-0.0121,-0.0122,-0.0103,-0.0103,-0.0104,0,0,0,0,0,0,0.0076,0.0085,0.008,0.0111,0.0104,0.0084,0.0086,0.0068,0.0045,0.0034,-0.0002,-0.0011,-0.0044,-0.0056,-0.0045,-0.0096,-0.0098,-0.01,-0.0082,-0.0082,-0.0082,-0.0074,-0.0068,0,0,0,0,0,0.0089,0.0112,0.0108,0.013,0.013,0.0109,0.0104,0.0087,0.0064,0.0053,0.0026,-0.0011,-0.0051,-0.0064,-0.0095,-0.0107,-0.0132,-0.0122,-0.0122,-0.0122,-0.012,-0.019,-0.0196,-0.0127,-0.0127,-0.0127,0,0,0.0102,0.0108,0.0122,0.0135,0.0126,0.013,0.0103,0.0101,0.0094,0.005,0.0033,-0.0011,-0.0057,-0.0087,-0.0102,-0.0098,-0.0149,-0.0124,-0.0124,-0.0122,-0.0192,-0.0199,-0.0205,-0.0128,-0.0128,-0.0128,0,0,0.0128,0.0146,0.0166,0.0167,0.0158,0.0146,0.0148,0.013,0.0114,0.0097,0.0044,-0.0006,-0.0035,-0.0087,-0.0114,-0.013,-0.0154,-0.0138,-0.0125,-0.0192,-0.0199,-0.0204,-0.0218,-0.0225,-0.0131,-0.0131,-0.0131,0,0.0135,0.0172,0.017,0.0182,0.0185,0.0157,0.017,0.0152,0.0124,0.0108,0.0096,-0.0001,-0.0041,-0.0105,-0.0119,-0.0132,-0.0154,-0.0118,-0.0193,-0.0199,-0.0206,-0.0218,-0.0227,-0.0131,-0.0131,-0.0131,-0.0131,0,0.0169,0.0198,0.021,0.022,0.0221,0.0231,0.0209,0.02,0.0175,0.0146,0.0086,0.0019,-0.0037,-0.0067,-0.0098,-0.0167,-0.0162,-0.019,-0.019,-0.0211,-0.0223,-0.0232,-0.0129,-0.013,-0.013,-0.013,0,0,0.0174,0.0226,0.0228,0.0246,0.0245,0.0249,0.0242,0.0225,0.0211,0.0162,0.0133,0.0037,-0.0007,-0.0043,-0.0101,-0.0165,-0.0228,-0.019,-0.0194,-0.0197,-0.034,-0.0322,-0.033,-0.0274,-0.0276,-0.0278,-0.0319,0,0.0195,0.0246,0.0259,0.0291,0.0313,0.0298,0.03,0.0274,0.0237,0.0203,0.0112,0.0057,0.0005,-0.0032,-0.0105,-0.0204,-0.0256,-0.0212,-0.0323,-0.0325,-0.0304,-0.0342,-0.0284,-0.0326,-0.0328,-0.0329,-0.033,0,0.0207,0.0247,0.0298,0.0341,0.0349,0.0359,0.0351,0.035,0.029,0.0259,0.0182,0.0112,0.0009,-0.0035,-0.0197,-0.0165,-0.0246,-0.032,-0.0324,-0.0323,-0.0326,-0.0308,-0.0347,-0.0346,-0.0345,-0.0343,-0.0342,0,0.02,0.0263,0.0312,0.0326,0.0369,0.0382,0.0396,0.0361,0.0359,0.0285,0.0262,0.0136,0.0074,-0.0058,-0.0199,-0.0205,-0.0368,-0.0393,-0.0447,-0.0444,-0.0453,-0.0446,-0.0511,-0.0511,-0.051,-0.051,-0.051,0,0.0211,0.0242,0.0319,0.0342,0.0397,0.041,0.0437,0.0424,0.0399,0.039,0.0291,0.0242,0.0058,-0.0055,-0.0182,-0.0329,-0.0352,-0.0448,-0.0469,-0.0438,-0.043,-0.0457,-0.045,-0.0512,-0.0512,-0.0511,-0.0511,0,0.0194,0.024,0.03,0.0372,0.0397,0.0433,0.0487,0.0503,0.0472,0.0454,0.0432,0.0311,0.0164,-0.0,-0.0211,-0.0297,-0.0447,-0.0493,-0.0408,-0.0422,-0.0474,-0.0466,-0.0554,-0.0554,-0.0554,-0.0554,-0.0554,0,0.0199,0.0234,0.0327,0.0376,0.0415,0.0477,0.0527,0.0534,0.0542,0.0491,0.0479,0.0344,0.0246,-0.0003,-0.019,-0.0408,-0.0452,-0.05,-0.0533,-0.0475,-0.0486,-0.0478,-0.0469,-0.0554,-0.0554,-0.0554,-0.0554,0,0.0224,0.0253,0.0319,0.0411,0.0477,0.055,0.0608,0.0608,0.0609,0.0585,0.0508,0.0369,0.0212,0.0003,-0.0163,-0.033,-0.0458,-0.0502,-0.0504,-0.0535,-0.0476,-0.0485,-0.0477,-0.0554,-0.0554,-0.0554,-0.0554,0,0.0256,0.0302,0.0385,0.0456,0.0545,0.0599,0.0622,0.0641,0.0646,0.0579,0.0554,0.0384,0.028,0.0044,-0.0115,-0.027,-0.0323,-0.0366,-0.0376,-0.0378,-0.0328,-0.0228,-0.0252,0,0,0,0,0,0.029,0.034,0.0424,0.0501,0.0582,0.0615,0.0676,0.0685,0.0668,0.0628,0.0589,0.0444,0.02,0.0088,-0.0066,-0.0136,-0.0358,-0.0322,-0.0414,-0.0556,-0.0555,-0.0528,0,0,0,0,0,0,0.0326,0.0402,0.0431,0.0524,0.0566,0.0648,0.0679,0.0669,0.0637,0.0599,0.0471,0.041,0.0169,0.0283,-0.0071,-0.012,-0.0196,-0.0438,-0.0441,-0.0556,-0.0556,-0.0555,-0.0527,0,0,0,0,0]}]]